Change the Weather History Date:

Saturday, April 5, 2014

  Actual Average Record
Temperature  
Mean Temperature 36 °F -  
Max Temperature 50 °F 48 °F 71 °F (2006)
Min Temperature 23 °F 30 °F 14 °F (2007)
Degree Days  
Heating Degree Days 28    
Moisture  
Dew Point 28 °F    
Average Humidity 74    
Maximum Humidity 93    
Minimum Humidity 54    
Precipitation  
Precipitation 0.00 in - - ()
Sea Level Pressure  
Sea Level Pressure 30.03 in    
Wind  
Wind Speed 9 mph (South)    
Max Wind Speed 20 mph    
Max Gust Speed 26 mph    
Visibility 9 miles    
Events Snow    
Averages and records for this station are not official NWS values.
T = Trace of Precipitation, MM = Missing Value Source: NWS Daily Summary

Daily Weather History Graph

Daily Weather History Graph

Search for Another Location

Airport or City:

Trip Planner

Search our weather history database for the weather conditions in past years. The results will help you decide how hot, cold, wet, or windy it might be!

Date:

Astronomy

Apr. 05, 2014 Rise Set
Actual Time 6:54 AM CDT 7:51 PM CDT
Civil Twilight 6:25 AM CDT 8:20 PM CDT
Nautical Twilight 5:50 AM CDT 8:55 PM CDT
Astronomical Twilight 5:14 AM CDT 9:32 PM CDT
Moon 10:56 AM CDT (4/5) 1:08 AM CDT (4/5)
Length of Visible Light 13h 55m
Length of Day
12h 57m
Waxing Crescent, 34% of the Moon is Illuminated
Apr 5
Waxing Crescent
Apr 7
First Quarter
Apr 15
Full
Apr 22
Last Quarter
Apr 29
New

Hourly Weather History & Observations

Time (CDT) Temp. Windchill Dew Point Humidity Pressure Visibility Wind Dir Wind Speed Gust Speed Precip Events Conditions
12:12 AM 26.6 °F 22.6 °F 24.8 °F 93% 30.09 in 10.0 mi SW 3.5 mph - N/A   Clear
12:33 AM 28.4 °F 23.3 °F 24.8 °F 86% 30.09 in 10.0 mi WSW 4.6 mph - N/A   Clear
12:53 AM 26.6 °F 22.6 °F 23.0 °F 86% 30.09 in 10.0 mi WSW 3.5 mph - N/A   Clear
1:12 AM 26.6 °F 22.6 °F 23.0 °F 86% 30.09 in 10.0 mi SSW 3.5 mph - N/A   Clear
1:32 AM 26.6 °F 20.0 °F 23.0 °F 86% 30.09 in 7.0 mi SSW 5.8 mph - N/A   Clear
1:53 AM 26.6 °F 20.0 °F 23.0 °F 86% 30.09 in 7.0 mi SSW 5.8 mph - N/A   Clear
2:12 AM 26.6 °F 21.2 °F 23.0 °F 86% 30.10 in 7.0 mi SSW 4.6 mph - N/A   Clear
2:33 AM 26.6 °F 21.2 °F 23.0 °F 86% 30.09 in 7.0 mi South 4.6 mph - N/A   Clear
2:52 AM 26.6 °F 22.6 °F 23.0 °F 86% 30.09 in 7.0 mi South 3.5 mph - N/A   Clear
3:12 AM 26.6 °F 20.0 °F 23.0 °F 86% 30.09 in 7.0 mi South 5.8 mph - N/A   Clear
3:33 AM 24.8 °F 17.9 °F 23.0 °F 93% 30.08 in 1.2 mi South 5.8 mph - N/A Snow Light Snow
3:52 AM 24.8 °F 19.1 °F 23.0 °F 93% 30.08 in 1.2 mi South 4.6 mph - N/A Snow Light Snow
4:12 AM 24.8 °F 19.1 °F 21.2 °F 86% 30.08 in 7.0 mi South 4.6 mph - N/A   Clear
4:32 AM 26.6 °F 20.0 °F 23.0 °F 86% 30.07 in 10.0 mi SSE 5.8 mph - N/A   Clear
4:52 AM 26.6 °F 20.0 °F 23.0 °F 86% 30.07 in 10.0 mi South 5.8 mph - N/A   Clear
5:13 AM 23.0 °F 15.8 °F 21.2 °F 93% 30.07 in 7.0 mi South 5.8 mph - N/A   Clear
5:32 AM 23.0 °F 15.8 °F 21.2 °F 93% 30.07 in 7.0 mi South 5.8 mph - N/A   Clear
5:52 AM 23.0 °F 14.7 °F 21.2 °F 93% 30.07 in 7.0 mi South 6.9 mph - N/A   Clear
6:13 AM 23.0 °F 14.7 °F 21.2 °F 93% 30.07 in 7.0 mi SSW 6.9 mph - N/A   Clear
6:32 AM 23.0 °F 17.0 °F 21.2 °F 93% 30.07 in 7.0 mi South 4.6 mph - N/A   Clear
6:52 AM 23.0 °F 13.9 °F 21.2 °F 93% 30.07 in 5.0 mi South 8.1 mph - N/A   Clear
7:12 AM 24.8 °F 16.1 °F 21.2 °F 86% 30.07 in 7.0 mi SSW 8.1 mph - N/A   Clear
7:32 AM 24.8 °F 16.1 °F 23.0 °F 93% 30.08 in 10.0 mi South 8.1 mph - N/A   Clear
7:52 AM 26.6 °F 17.5 °F 23.0 °F 86% 30.08 in 10.0 mi SSW 9.2 mph - N/A   Clear
8:12 AM 28.4 °F 19.1 °F 24.8 °F 86% 30.09 in 10.0 mi SSW 10.4 mph - N/A   Clear
8:32 AM 30.2 °F 20.2 °F 26.6 °F 86% 30.09 in 10.0 mi SSW 12.7 mph - N/A   Clear
8:52 AM 32.0 °F 21.6 °F 26.6 °F 80% 30.10 in 10.0 mi SSW 15.0 mph - N/A   Clear
9:12 AM 32.0 °F 22.1 °F 26.6 °F 80% 30.09 in 10.0 mi SSW 13.8 mph - N/A   Clear
9:32 AM 32.0 °F 21.6 °F 28.4 °F 87% 30.09 in 10.0 mi SSW 15.0 mph - N/A   Clear
9:52 AM 33.8 °F 23.9 °F 28.4 °F 81% 30.09 in 10.0 mi SSW 15.0 mph - N/A   Clear
10:12 AM 33.8 °F 23.5 °F 28.4 °F 81% 30.09 in 10.0 mi South 16.1 mph - N/A   Clear
10:32 AM 35.6 °F 26.2 °F 28.4 °F 75% 30.09 in 10.0 mi South 15.0 mph - N/A   Clear
10:52 AM 35.6 °F 25.5 °F 28.4 °F 75% 30.08 in 10.0 mi SSW 17.3 mph - N/A   Clear
11:12 AM 37.4 °F 28.2 °F 30.2 °F 75% 30.08 in 10.0 mi South 16.1 mph - N/A   Clear
11:32 AM 37.4 °F 28.5 °F 30.2 °F 75% 30.08 in 10.0 mi South 15.0 mph - N/A   Clear
11:52 AM 37.4 °F 28.5 °F 30.2 °F 75% 30.07 in 10.0 mi South 15.0 mph - N/A   Clear
12:12 PM 39.2 °F 31.2 °F 32.0 °F 75% 30.07 in 10.0 mi South 13.8 mph - N/A   Clear
12:32 PM 39.2 °F 30.8 °F 32.0 °F 75% 30.06 in 10.0 mi South 15.0 mph - N/A   Clear
12:52 PM 41.0 °F 33.1 °F 32.0 °F 70% 30.06 in 10.0 mi South 15.0 mph - N/A   Clear
1:12 PM 41.0 °F 32.8 °F 32.0 °F 70% 30.06 in 10.0 mi South 16.1 mph - N/A   Clear
1:32 PM 41.0 °F 32.8 °F 32.0 °F 70% 30.05 in 10.0 mi South 16.1 mph - N/A   Scattered Clouds
1:52 PM 42.8 °F 34.3 °F 32.0 °F 66% 30.04 in 10.0 mi South 19.6 mph - N/A   Overcast
2:12 PM 42.8 °F 34.5 °F 32.0 °F 66% 30.03 in 10.0 mi South 18.4 mph - N/A   Overcast
2:32 PM 42.8 °F 35.1 °F 32.0 °F 66% 30.03 in 10.0 mi South 16.1 mph 25.3 mph N/A   Overcast
2:53 PM 44.6 °F 37.2 °F 32.0 °F 61% 30.01 in 10.0 mi South 17.3 mph - N/A   Overcast
3:12 PM 44.6 °F 36.6 °F 32.0 °F 61% 30.00 in 10.0 mi South 19.6 mph 24.2 mph N/A   Scattered Clouds
3:32 PM 46.4 °F 39.2 °F 33.8 °F 62% 29.99 in 10.0 mi South 18.4 mph 24.2 mph N/A   Clear
3:52 PM 46.4 °F 39.0 °F 33.8 °F 62% 29.98 in 10.0 mi South 19.6 mph 25.3 mph N/A   Clear
4:12 PM 46.4 °F 39.0 °F 33.8 °F 62% 29.98 in 10.0 mi South 19.6 mph 25.3 mph N/A   Scattered Clouds
4:32 PM 48.2 °F - 33.8 °F 58% 29.97 in 10.0 mi South 17.3 mph 26.5 mph N/A   Scattered Clouds
4:52 PM 50.0 °F - 33.8 °F 54% 29.96 in 10.0 mi South 17.3 mph 24.2 mph N/A   Clear
5:12 PM 50.0 °F - 33.8 °F 54% 29.96 in 10.0 mi South 18.4 mph 23.0 mph N/A   Clear
5:32 PM 50.0 °F - 33.8 °F 54% 29.95 in 10.0 mi South 16.1 mph 20.7 mph N/A   Clear
5:52 PM 50.0 °F - 33.8 °F 54% 29.95 in 10.0 mi South 13.8 mph 20.7 mph N/A   Clear
6:12 PM 50.0 °F - 35.6 °F 58% 29.95 in 10.0 mi South 15.0 mph - N/A   Clear
6:32 PM 50.0 °F - 33.8 °F 54% 29.94 in 10.0 mi South 15.0 mph 21.9 mph N/A   Clear
6:52 PM 50.0 °F - 33.8 °F 54% 29.95 in 10.0 mi South 13.8 mph 21.9 mph N/A   Clear
7:12 PM 48.2 °F - 32.0 °F 54% 29.95 in 10.0 mi South 12.7 mph - N/A   Clear
7:32 PM 46.4 °F 41.1 °F 32.0 °F 57% 29.94 in 10.0 mi South 11.5 mph - N/A   Clear
7:52 PM 46.4 °F 41.1 °F 32.0 °F 57% 29.94 in 10.0 mi South 11.5 mph - N/A   Clear
8:12 PM 44.6 °F 38.1 °F 32.0 °F 61% 29.94 in 10.0 mi SSE 13.8 mph - N/A   Clear
8:32 PM 44.6 °F 38.4 °F 32.0 °F 61% 29.94 in 10.0 mi SSE 12.7 mph 19.6 mph N/A   Clear
8:52 PM 44.6 °F 38.4 °F 32.0 °F 61% 29.94 in 10.0 mi SSE 12.7 mph 19.6 mph N/A   Clear
9:12 PM 42.8 °F 35.8 °F 32.0 °F 66% 29.94 in 10.0 mi SSE 13.8 mph 18.4 mph N/A   Clear
9:32 PM 42.8 °F 36.2 °F 32.0 °F 66% 29.94 in 10.0 mi South 12.7 mph 19.6 mph N/A   Clear
9:52 PM 42.8 °F 35.8 °F 32.0 °F 66% 29.94 in 10.0 mi South 13.8 mph 19.6 mph N/A   Clear
10:12 PM 42.8 °F 35.8 °F 32.0 °F 66% 29.93 in 10.0 mi South 13.8 mph - N/A   Clear
10:33 PM 42.8 °F 35.4 °F 30.2 °F 61% 29.93 in 10.0 mi South 15.0 mph - N/A   Clear
10:52 PM 42.8 °F 36.2 °F 30.2 °F 61% 29.93 in 10.0 mi South 12.7 mph - N/A   Clear
11:12 PM 41.0 °F 33.5 °F 30.2 °F 65% 29.93 in 10.0 mi South 13.8 mph - N/A   Clear
11:33 PM 41.0 °F 33.5 °F 30.2 °F 65% 29.93 in 10.0 mi South 13.8 mph - N/A   Clear
11:52 PM 41.0 °F 33.5 °F 30.2 °F 65% 29.93 in 10.0 mi South 13.8 mph - N/A   Clear